Flag for Philippines Weather past 2 weeks in Makati, Philippines

Now
82 °F

Passing clouds.


Feels Like: 91 °F
Forecast: 82 / 94 °F
Wind: 3 mph from Southwest

Location: National Airport

Current Time: May 29, 2015 at 2:54:55 AM

Latest Report: May 29, 2015 at 2:00 AM


Visibility: N/A

Pressure: 29.77 "Hg

Humidity: 84%

Dew point: 77 °F

Location of MakatiLocation

Historic Weather in Makati — Graph

°F

Makati temperature yesterday

Maximum temperature yesterday: 91 °F (at 12:00 PM)
Minimum temperature yesterday: 81 °F (at 3:00 AM)
Average temperature yesterday: 86 °F

Past Weeks' High & Low Weather Summary

 TemperatureHumidityPressure
High97 °F (May 16, 3:00 PM)100% (May 23, 3:00 AM)30.01 "Hg (May 23, 3:00 AM)
Low36 °F (May 23, 3:00 AM)30% (May 18, 1:00 PM)29.74 "Hg (May 16, 4:00 PM)
Average87 °F69%29.84 "Hg
* Reported May 14 1:00 AM — May 29 1:00 AM, Makati, Weather by CustomWeather, © 2015

Note: Actual official high and low records may vary slightly from our data, if they occured in-between our weather recording intervals... More about our weather records

Advertising

Makati weather history for previous 24 hours

 ConditionsComfort  
Time TempWeatherWind HumidityBarometerVisibility
1:00 AM
Fri, May 29
84 °FPassing clouds.3 mph79%29.80 "HgN/A
12:00 AM84 °FPassing clouds.5 mph79%29.83 "HgN/A
11:00 PM
Thu, May 28
84 °FPassing clouds.3 mph79%29.83 "HgN/A
10:00 PM84 °FPassing clouds.3 mph79%29.83 "HgN/A
9:00 PM86 °FPassing clouds.5 mph75%29.80 "HgN/A
8:00 PM86 °FPassing clouds.12 mph70%29.80 "HgN/A
7:00 PM86 °FPassing clouds.12 mph75%29.77 "HgN/A
6:00 PM86 °FScattered clouds.12 mph75%29.77 "HgN/A
5:00 PM88 °FScattered clouds.13 mph66%29.74 "HgN/A
4:00 PM88 °FBroken clouds.14 mph70%29.74 "HgN/A
3:00 PM90 °FScattered clouds.16 mph59%29.74 "HgN/A
2:00 PM90 °FScattered clouds.12 mph59%29.74 "HgN/A
1:00 PM91 °FScattered clouds.16 mph63%29.77 "HgN/A
12:00 PM91 °FPassing clouds.15 mph59%29.80 "HgN/A
11:00 AM90 °FBroken clouds.9 mph63%29.80 "HgN/A
10:00 AM90 °FPartly sunny.7 mph63%29.83 "HgN/A
9:00 AM90 °FScattered clouds.6 mph63%29.83 "HgN/A
8:00 AM88 °FScattered clouds.2 mph62%29.83 "HgN/A
7:00 AM86 °FScattered clouds.1 mph70%29.83 "HgN/A
6:00 AM81 °FPartly sunny.No wind89%29.80 "HgN/A
5:00 AM81 °FPassing clouds.2 mph84%29.77 "HgN/A
4:00 AM81 °FPassing clouds.No wind84%29.77 "HgN/A
3:00 AM81 °FPassing clouds.No wind79%29.77 "HgN/A
2:00 AM82 °FPassing clouds.1 mph74%29.80 "HgN/A
Weather by CustomWeather, © 2015

See weather overviewHow to use our weather pages